Weather History for Austin Bergstrom, TX

Change the Weather History Date:

Monday, July 8, 2013

  Actual Average Record
Temperature  
Mean Temperature 85 °F 83 °F  
Max Temperature 93 °F 95 °F 105 °F (2009)
Min Temperature 76 °F 72 °F 68 °F (2000)
Degree Days  
Heating Degree Days 0 0  
Month to date heating degree days 0 0  
Since 1 June heating degree days 0 0  
Since 1 July heating degree days 0 0  
Cooling Degree Days 20 18  
Month to date cooling degree days 132 144  
Year to date cooling degree days 1215 1132  
Since 1 June cooling degree days 701 625  
Growing Degree Days 34 (Base 50)    
Moisture  
Dew Point 72 °F    
Average Humidity 63    
Maximum Humidity 88    
Minimum Humidity 38    
Precipitation  
Precipitation 0.02 in 0.10 in 1.96 in (1973)
Month to date precipitation 0.02 0.80  
Year to date precipitation 16.15 17.23  
Snow  
Snow 0.00 in - - ()
Month to date snowfall 0.0  
Since 1 June snowfall 0.0  
Since 1 July snowfall 0.0  
Snow Depth 0.00 in    
Sea Level Pressure  
Sea Level Pressure 30.03 in    
Wind  
Wind Speed 10 mph (SSE)    
Max Wind Speed 18 mph    
Max Gust Speed 23 mph    
Visibility 10 miles    
Events Rain    
T = Trace of Precipitation, MM = Missing Value Source: NWS Daily Summary

Daily Weather History Graph

Daily Weather History Graph

Search for Another Location

Airport:

Trip Planner

Search our weather history database for the weather conditions in past years. The results will help you decide how hot, cold, wet, or windy it might be!

Date:

Astronomy

Jul. 08, 2013 Rise Set
Actual Time 6:35 AM CDT 8:35 PM CDT
Civil Twilight 6:08 AM CDT 9:02 PM CDT
Nautical Twilight 5:35 AM CDT 9:35 PM CDT
Astronomical Twilight 5:00 AM CDT 10:10 PM CDT
Moon 7:00 AM CDT (7/8) 8:46 PM CDT (7/8)
Length of Visible Light 14h 54m
Length of Day
13h 59m
Waxing Crescent, 0% of the Moon is Illuminated
Jul 8
Waxing Crescent
Jul 15
First Quarter
Jul 22
Full
Jul 29
Last Quarter
Aug 6
New

Hourly Weather History & Observations

Time (CDT) Temp. Heat Index Dew Point Humidity Pressure Visibility Wind Dir Wind Speed Gust Speed Precip Events Conditions
12:53 AM 79.0 °F - 73.0 °F 82% 29.96 in 10.0 mi SSE 6.9 mph - N/A   Partly Cloudy
1:53 AM 79.0 °F - 73.0 °F 82% 29.95 in 10.0 mi SSE 9.2 mph - N/A   Partly Cloudy
2:53 AM 78.1 °F - 73.0 °F 84% 29.96 in 10.0 mi SSE 8.1 mph - N/A   Partly Cloudy
3:42 AM 77.0 °F - 73.4 °F 89% 30.02 in 10.0 mi SSE 6.9 mph - N/A   Mostly Cloudy
3:53 AM 77.0 °F - 73.0 °F 88% 29.99 in 10.0 mi SSE 8.1 mph - N/A   Mostly Cloudy
4:53 AM 77.0 °F - 73.0 °F 88% 30.00 in 10.0 mi SSE 5.8 mph - N/A   Mostly Cloudy
5:17 AM 77.0 °F - 73.4 °F 89% 30.04 in 10.0 mi SSE 4.6 mph - N/A   Mostly Cloudy
5:22 AM 77.0 °F - 73.4 °F 89% 30.04 in 10.0 mi SSE 3.5 mph - N/A   Mostly Cloudy
5:53 AM 77.0 °F - 73.0 °F 88% 30.01 in 10.0 mi South 4.6 mph - N/A   Scattered Clouds
6:39 AM 75.2 °F - 73.4 °F 94% 30.06 in 10.0 mi Calm Calm - N/A   Overcast
6:53 AM 77.0 °F - 73.9 °F 90% 30.04 in 10.0 mi Calm Calm - N/A   Overcast
7:34 AM 77.0 °F - 73.4 °F 89% 30.07 in 10.0 mi SSE 4.6 mph - N/A   Overcast
7:53 AM 78.1 °F - 73.9 °F 87% 30.04 in 10.0 mi SSE 5.8 mph - N/A   Overcast
8:53 AM 81.0 °F 85.8 °F 73.0 °F 77% 30.06 in 10.0 mi South 10.4 mph - N/A   Overcast
9:24 AM 82.4 °F 88.2 °F 73.4 °F 74% 30.10 in 10.0 mi South 11.5 mph - N/A   Overcast
9:53 AM 82.9 °F 88.8 °F 73.0 °F 72% 30.07 in 10.0 mi South 11.5 mph - N/A   Overcast
10:53 AM 84.0 °F 90.2 °F 73.0 °F 69% 30.07 in 10.0 mi South 12.7 mph - N/A   Overcast
11:53 AM 79.0 °F - 73.9 °F 84% 30.09 in 7.0 mi SSE 16.1 mph - 0.02 in Rain Rain
12:53 PM 84.0 °F 89.0 °F 71.1 °F 65% 30.07 in 10.0 mi South 15.0 mph 21.9 mph 0.00 in   Overcast
1:53 PM 84.0 °F 87.8 °F 69.1 °F 61% 30.06 in 10.0 mi South 12.7 mph 23.0 mph N/A   Overcast
2:53 PM 86.0 °F 91.5 °F 71.1 °F 61% 30.06 in 10.0 mi SSE 9.2 mph - N/A   Overcast
3:53 PM 87.1 °F 92.8 °F 71.1 °F 59% 30.04 in 10.0 mi South 4.6 mph - N/A   Overcast
4:53 PM 91.0 °F 91.5 °F 62.1 °F 38% 30.01 in 10.0 mi SSE 13.8 mph 18.4 mph N/A   Overcast
5:53 PM 90.0 °F 91.3 °F 64.0 °F 42% 30.01 in 10.0 mi South 13.8 mph 18.4 mph N/A   Overcast
6:53 PM 89.1 °F 91.3 °F 66.0 °F 46% 30.00 in 10.0 mi SSE 12.7 mph - N/A   Overcast
7:53 PM 87.1 °F 90.6 °F 68.0 °F 53% 30.00 in 10.0 mi SSE 8.1 mph - N/A   Overcast
8:53 PM 86.0 °F 90.7 °F 70.0 °F 59% 30.02 in 10.0 mi SE 10.4 mph - N/A   Mostly Cloudy
9:53 PM 84.0 °F 89.6 °F 72.0 °F 67% 30.05 in 10.0 mi SE 8.1 mph - N/A   Scattered Clouds
10:53 PM 82.0 °F 87.4 °F 73.0 °F 74% 30.07 in 10.0 mi SSE 11.5 mph - N/A   Mostly Cloudy
11:53 PM 81.0 °F 85.8 °F 73.0 °F 77% 30.09 in 10.0 mi South 9.2 mph - N/A   Scattered Clouds